User: anonymous   Login
Location: Franzen
(48.6167°N, 15.3833°E)
Time: 12:01:12
(UTC+00:00)
Language:

FENGYUN 1C DEB - Orbit

View from above orbital plane
View from above orbital plane
View from above satellite
View from above satellite

Ground track
Ground track

The orbit data is extracted from the following two-line orbital elements,

1 29924U 99025HW  21295.64136949 -.00000107  00000-0 -36673-4 0  9991
2 29924  98.8667 325.6156 0026733 200.2745 289.1270 14.08310761759215
Epoch (UTC): 22 October 2021 15:23:34
Eccentricity: 0.0026733
inclination: 98.8667°
perigee height: 846 km
apogee height: 884 km
right ascension of ascending node: 325.6156°
argument of perigee: 200.2745°
revolutions per day: 14.08310761
mean anomaly at epoch: 289.1270°
orbit number at epoch: 75921

The dashed part of the orbit path shows where the satellite is in the earth's shadow,  

DLR